Regional Weather Roundup
Issued by NWS New Orleans/Baton Rouge, LA

Home | Current Version | Previous Version | Text Only | Print | Product List | Glossary On
Versions: 1 2 3 4 5 6 7 8 9 10 11 12 13 14 15 16 17 18 19 20 21 22 23 24 25 26 27 28 29 30 31 32 33 34 35 36 37 38 39 40 41 42 43 44 45 46 47 48 49 50
000
ASUS44 KLIX 302010
RWRLIX
NEW ORLEANS REGIONAL WEATHER ROUNDUP
NATIONAL WEATHER SERVICE NEW ORLEANS LA
300 PM CDT SAT AUG 30 2014

NOTE: "FAIR" INDICATES FEW OR NO CLOUDS BELOW 12,000 FEET WITH NO
      SIGNIFICANT WEATHER AND/OR OBSTRUCTIONS TO VISIBILITY.
      SKY/WX - SKY CONDITION AND SIGNIFICANT WEATHER.
      TMP - AIR TEMPERATURE.     DP    - DEWPOINT TEMPERATURE.
      RH  - RELATIVE HUMIDITY.   PRES  - PRESSURE.
      HI  - HEAT INDEX.          WCI   - WIND CHILL INDEX.

*  THESE STATIONS ARE NOT NWS OR FAA STATIONS AND ARE NOT UNDER
   NWS QUALITY CONTROL.

LAZ038-040-048-061>063-065>067-069-302100-
SOUTHEAST LOUISIANA

CITY           SKY/WX    TMP DP  RH WIND       PRES   REMARKS
N.O. AUDUBON   NOT AVBL
N.O. INTL ARPT LGT RAIN  75  72  90 E3        30.04F
N.O. LAKEFRONT LGT RAIN  76  71  85 SW7       30.05F
N.O. DOWNTOWN* CLOUDY    79  70  73 S5        30.06F
SLIDELL        RAIN      75  72  90 CALM      30.06F FOG
BATON ROUGE    RAIN      75  74  96 SE8       30.03F FOG
BOOTHVILLE     CLOUDY    88  79  74 S14G22    30.03F HX 103
BELLE CHASSE   LGT RAIN  76  72  87 CALM      30.03F
BOGALUSA*        N/A     76  72  87 SW5       30.10F
GALLIANO*      NOT AVBL
NEW ROADS*     LGT RAIN  76  74  95 S3        30.02S
GONZALES*      MOCLDY    77  77 100 E3        30.03S
HAMMOND*       DRIZZLE   75  72  88 SE9       30.08S
HOUMA*         PTSUNNY   77  73  88 SE9       30.03F
PORT FOURCHON* CLEAR     81  72  74 W3        30.04F

$$

MSZ070-080>082-302100-
SOUTHERN MISSISSIPPI

CITY           SKY/WX    TMP DP  RH WIND       PRES   REMARKS
MCCOMB         LGT RAIN  74  72  93 S10       30.07R
GULFPORT       CLOUDY    85  77  77 S12G20    30.04F HX  95
BILOXI         CLOUDY    87  77  72 S13G20    30.05S HX  98
PASCAGOULA     CLOUDY    87  76  69 S12G18    30.05S HX  97
STENNIS ARPT*  CLOUDY   N/A N/A N/A W8        30.08R

$$

COASTAL OBSERVATIONS
LAKE AND NEARSHORE STATIONS

STATION/POSITION TIME  TEMP    WIND        PRES    WAVE
                       AIR SEA DIR/SP/G            HT/PER
                 (UTC) (F)     (DEG/KT/KT) (MB)    (FT/S)
PASCAGOULA       2000   88     170/ 14/ 19 1017.2
WAVELAND YACHT   2000   76     290/  5/  7 1017.2
GRAND ISLE       2000   81 84  270/  7/  9 1017.3
SOUTHWEST PASS   2000   88 90  170/ 16/ 19 1017.2
NEW CANAL        2000   74 81  140/  1/  2 1018.1
SHELL BEACH      2000   76 81  280/ 14/ 16 1017.5

OFFSHORE STATIONS

STATION/POSITION TIME  TEMP    WIND        PRES    WAVE
                       AIR SEA DIR/SP/G            HT/PER
                 (UTC) (F)     (DEG/KT/KT) (MB)    (FT/S)
64 S DAUPHIN ISL 1900   85 86  150/ 16/ 17 1018.0

$$




USA.gov is the U.S. government's official web portal to all federal, state and local government web resources and services.